FW1417 Weather Reports


Display with metric or nautical units.
time (UTC)temp
F
wind
direction
speed
MPH
gust
MPH
rain 1hr
in
rain 24hr
in
rain mn
in
humidity
%
barometer
mb
20260906005228 75 31 2.0 10.0 0.00 0.00 0.00 60 1010.7
20260906004728 75 5 5.0 10.0 0.00 0.00 0.00 60 1010.7
20260906004228 75 323 3.0 10.0 0.00 0.00 0.00 59 1010.7
20260906003227 76 324 6.0 10.0 0.00 0.00 0.00 58 1010.5
20260906002227 76 336 6.0 12.0 0.00 0.00 0.00 58 1010.4
20260906000727 76 5 3.0 8.0 0.00 0.00 0.00 57 1010.2
20260906000227 76 310 3.0 9.0 0.00 0.00 0.00 57 1010.1
20260905235227 77 5 3.0 9.0 0.00 0.00 0.00 56 1010.0
20260905234727 77 309 5.0 8.0 0.00 0.00 0.00 56 1009.9
20260905234227 77 17 2.0 5.0 0.00 0.00 0.00 56 1009.8
20260905233727 77 340 2.0 3.0 0.00 0.00 0.00 56 1009.8
20260905233227 77 325 2.0 3.0 0.00 0.00 0.00 56 1009.9
20260905232727 77 355 2.0 6.0 0.00 0.00 0.00 56 1009.9
20260905232227 77 336 2.0 7.0 0.00 0.00 0.00 56 1009.9
20260905231728 77 337 3.0 10.0 0.00 0.00 0.00 55 1009.9
20260905230727 78 297 3.0 9.0 0.00 0.00 0.00 54 1010.0
20260905230227 78 9 3.0 9.0 0.00 0.00 0.00 53 1010.0
20260905225727 78 313 4.0 8.0 0.00 0.00 0.00 52 1009.9
20260905225227 78 306 1.0 9.0 0.00 0.00 0.00 52 1009.9
20260905224727 78 341 2.0 9.0 0.00 0.00 0.00 51 1009.7
20260905224227 78 315 3.0 9.0 0.00 0.00 0.00 51 1009.7
20260905223727 79 58 3.0 12.0 0.00 0.00 0.00 51 1009.5
20260905223227 79 355 5.0 12.0 0.00 0.00 0.00 51 1009.6
20260905222727 79 0 2.0 12.0 0.00 0.00 0.00 51 1009.7
20260905222227 79 17 7.0 12.0 0.00 0.00 0.00 50 1009.6
20260905221729 79 355 3.0 7.0 0.00 0.00 0.00 50 1009.5
20260905220727 79 319 5.0 12.0 0.00 0.00 0.00 49 1009.4
20260905220227 80 49 5.0 12.0 0.00 0.00 0.00 48 1009.4
20260905215728 80 327 5.0 10.0 0.00 0.00 0.00 48 1009.3
20260905214727 80 327 2.0 10.0 0.00 0.00 0.00 49 1009.3
20260905213728 80 29 2.0 12.0 0.00 0.00 0.00 49 1009.4
20260905213228 80 335 5.0 12.0 0.00 0.00 0.00 49 1009.5
20260905212727 80 228 5.0 10.0 0.00 0.00 0.00 48 1009.5
20260905212227 80 313 5.0 10.0 0.00 0.00 0.00 48 1009.3
20260905211729 80 59 4.0 10.0 0.00 0.00 0.00 48 1009.3
20260905211227 81 339 6.0 10.0 0.00 0.00 0.00 47 1009.3
20260905210729 81 0 3.0 9.0 0.00 0.00 0.00 48 1009.3
20260905210228 81 296 3.0 8.0 0.00 0.00 0.00 47 1009.3
20260905205727 81 256 2.0 8.0 0.00 0.00 0.00 48 1009.3
20260905205227 81 290 2.0 8.0 0.00 0.00 0.00 48 1009.3
20260905204727 81 20 3.0 8.0 0.00 0.00 0.00 47 1009.2
20260905204227 80 248 3.0 9.0 0.00 0.00 0.00 47 1009.2
20260905203728 81 355 5.0 9.0 0.00 0.00 0.00 47 1009.2
20260905203227 81 317 3.0 9.0 0.00 0.00 0.00 46 1009.2
20260905202727 80 300 4.0 9.0 0.00 0.00 0.00 49 1009.2
20260905202227 80 0 3.0 9.0 0.00 0.00 0.00 50 1009.1
20260905201727 79 18 2.0 8.0 0.00 0.00 0.00 49 1009.1
20260905201227 79 26 5.0 8.0 0.00 0.00 0.00 49 1009.1
20260905200227 80 336 2.0 7.0 0.00 0.00 0.00 51 1009.1
20260905195727 80 18 3.0 8.0 0.00 0.00 0.00 50 1009.2
20260905195227 80 12 3.0 9.0 0.00 0.00 0.00 50 1009.2
20260905194727 80 60 2.0 9.0 0.00 0.00 0.00 49 1009.2
20260905194227 80 51 3.0 9.0 0.00 0.00 0.00 49 1009.2
20260905193727 80 11 3.0 7.0 0.00 0.00 0.00 50 1009.2
20260905193227 79 9 4.0 8.0 0.00 0.00 0.00 50 1009.2
20260905192727 79 291 2.0 10.0 0.00 0.00 0.00 50 1009.3
20260905192227 79 351 5.0 12.0 0.00 0.00 0.00 50 1009.3
20260905191727 79 62 6.0 12.0 0.00 0.00 0.00 49 1009.2
20260905191228 80 53 5.0 10.0 0.00 0.00 0.00 49 1009.3
20260905190727 80 31 5.0 10.0 0.00 0.00 0.00 51 1009.3
20260905190227 80 277 5.0 9.0 0.00 0.00 0.00 52 1009.3
20260905185727 80 32 4.0 9.0 0.00 0.00 0.00 51 1009.3
20260905185227 80 40 4.0 10.0 0.00 0.00 0.00 51 1009.5
20260905184727 81 5 3.0 10.0 0.00 0.00 0.00 49 1009.5
20260905184227 80 12 3.0 9.0 0.00 0.00 0.00 48 1009.6
20260905183727 81 22 5.0 9.0 0.00 0.00 0.00 49 1009.5
20260905183227 81 5 6.0 9.0 0.00 0.00 0.00 49 1009.5
20260905182727 81 27 2.0 9.0 0.00 0.00 0.00 51 1009.5
20260905182227 81 14 5.0 9.0 0.00 0.00 0.00 50 1009.5
20260905180727 81 5 2.0 13.0 0.00 0.00 0.00 47 1009.5
20260905180227 81 26 6.0 13.0 0.00 0.00 0.00 47 1009.6
20260905175727 81 5 7.0 13.0 0.00 0.00 0.00 47 1009.7
20260905175227 81 350 4.0 13.0 0.00 0.00 0.00 47 1009.7
20260905174727 81 290 2.0 12.0 0.00 0.00 0.00 49 1009.7
20260905174227 80 355 3.0 9.0 0.00 0.00 0.00 49 1009.7
20260905173727 80 236 4.0 9.0 0.00 0.00 0.00 50 1009.8
20260905173226 80 315 4.0 8.0 0.00 0.00 0.00 50 1009.8
20260905172727 80 235 3.0 8.0 0.00 0.00 0.00 50 1009.7
20260905172227 80 350 4.0 10.0 0.00 0.00 0.00 49 1009.9
20260905171727 80 329 5.0 10.0 0.00 0.00 0.00 49 1010.1
20260905170728 80 336 3.0 10.0 0.00 0.00 0.00 50 1009.9
20260905170226 80 327 2.0 10.0 0.00 0.00 0.00 50 1010.0
20260905165728 80 291 3.0 10.0 0.00 0.00 0.00 51 1010.0
20260905165227 80 5 2.0 10.0 0.00 0.00 0.00 50 1010.1
20260905164227 79 321 5.0 9.0 0.00 0.00 0.00 50 1010.1
20260905163726 79 86 5.0 12.0 0.00 0.00 0.00 50 1010.2
20260905163227 79 323 4.0 12.0 0.00 0.00 0.00 50 1010.2
20260905162726 79 319 4.0 10.0 0.00 0.00 0.00 51 1010.1
20260905162227 78 54 3.0 10.0 0.00 0.00 0.00 53 1010.1
20260905161727 78 272 5.0 9.0 0.00 0.00 0.00 53 1010.1
20260905161227 78 5 3.0 8.0 0.00 0.00 0.00 54 1010.1
20260905160726 78 20 3.0 8.0 0.00 0.00 0.00 53 1010.2
20260905155727 78 294 4.0 12.0 0.00 0.00 0.00 55 1010.0
20260905155227 78 65 5.0 12.0 0.00 0.00 0.00 57 1010.0
20260905154727 77 10 4.0 12.0 0.00 0.00 0.00 56 1009.9
20260905153727 78 350 3.0 10.0 0.00 0.00 0.00 55 1010.0
20260905153227 78 350 4.0 9.0 0.00 0.00 0.00 54 1010.0
20260905152726 78 0 4.0 9.0 0.00 0.00 0.00 53 1010.0
20260905152226 79 251 2.0 8.0 0.00 0.00 0.00 53 1010.0
20260905151726 79 0 5.0 8.0 0.00 0.00 0.00 52 1010.0
20260905151226 79 293 3.0 12.0 0.00 0.00 0.00 52 1010.1
20260905150227 79 274 3.0 9.0 0.00 0.00 0.00 52 1009.9
20260905145727 79 31 3.0 9.0 0.00 0.00 0.00 53 1009.9
20260905144726 78 0 5.0 12.0 0.00 0.00 0.00 56 1010.0
20260905143728 78 333 4.0 13.0 0.00 0.00 0.00 55 1009.9
20260905142726 78 9 4.0 10.0 0.00 0.00 0.00 56 1010.0
20260905142226 78 5 3.0 10.0 0.00 0.00 0.00 56 1009.9
20260905141227 77 275 4.0 9.0 0.00 0.00 0.00 57 1009.9
20260905140727 77 5 3.0 10.0 0.00 0.00 0.00 58 1009.8
20260905140227 77 0 3.0 10.0 0.00 0.00 0.00 58 1009.7
20260905135726 77 288 3.0 10.0 0.00 0.00 0.00 57 1009.7
20260905135226 77 28 4.0 10.0 0.00 0.00 0.00 57 1009.7
20260905134727 77 26 3.0 8.0 0.00 0.00 0.00 58 1009.8
20260905134227 77 70 5.0 9.0 0.00 0.00 0.00 58 1009.8
20260905132726 76 37 2.0 8.0 0.00 0.00 0.00 60 1009.8
20260905132226 76 28 2.0 7.0 0.00 0.00 0.00 61 1009.9
20260905131226 75 341 2.0 7.0 0.00 0.00 0.00 62 1009.9
20260905130726 75 311 2.0 6.0 0.00 0.00 0.00 61 1010.0
20260905130226 75 323 3.0 8.0 0.00 0.00 0.00 62 1010.2
20260905125727 74 264 2.0 8.0 0.00 0.00 0.00 62 1010.1
20260905125227 74 304 2.0 8.0 0.00 0.00 0.00 62 1010.2
20260905124726 74 263 2.0 8.0 0.00 0.00 0.00 62 1010.2
20260905124227 74 294 2.0 7.0 0.00 0.00 0.00 62 1010.3
20260905123726 74 342 2.0 7.0 0.00 0.00 0.00 62 1010.2
20260905123226 74 325 2.0 7.0 0.00 0.00 0.00 62 1010.3
20260905122726 74 277 2.0 7.0 0.00 0.00 0.00 63 1010.5
20260905122226 74 307 0.0 6.0 0.00 0.00 0.00 64 1010.5
20260905121726 73 355 3.0 6.0 0.00 0.00 0.00 64 1010.4
20260905121226 73 0 2.0 6.0 0.00 0.00 0.00 65 1010.3
20260905120726 72 0 3.0 6.0 0.00 0.00 0.00 66 1010.3
20260905120227 72 315 1.0 3.0 0.00 0.00 0.00 67 1010.3
20260905115226 71 336 3.0 7.0 0.00 0.00 0.00 67 1010.3
20260905114227 71 20 2.0 9.0 0.00 0.00 0.00 67 1010.3
20260905113727 71 17 4.0 9.0 0.00 0.00 0.00 67 1010.2
20260905113226 71 24 3.0 7.0 0.00 0.00 0.00 67 1010.1
20260905112727 70 309 2.0 3.0 0.00 0.00 0.00 67 1010.0
20260905111726 70 16 2.0 5.0 0.00 0.00 0.00 68 1009.9
20260905111227 70 302 3.0 7.0 0.00 0.00 0.00 68 1009.8
20260905110726 70 351 4.0 7.0 0.00 0.00 0.00 68 1009.7
20260905110226 70 328 3.0 7.0 0.00 0.00 0.00 68 1009.6
20260905105727 70 327 3.0 7.0 0.00 0.00 0.00 67 1009.5
20260905105226 70 319 3.0 7.0 0.00 0.00 0.00 67 1009.6
20260905104726 70 10 3.0 7.0 0.00 0.00 0.00 67 1009.5
20260905104226 70 331 3.0 7.0 0.00 0.00 0.00 66 1009.5
20260905103726 71 290 1.0 7.0 0.00 0.00 0.00 66 1009.4
20260905102726 71 319 2.0 5.0 0.00 0.00 0.00 66 1009.3
20260905102226 71 14 2.0 7.0 0.00 0.00 0.00 66 1009.2
20260905101726 71 341 2.0 7.0 0.00 0.00 0.00 66 1009.3
20260905101226 71 355 3.0 8.0 0.00 0.00 0.00 65 1009.3
20260905100726 71 323 3.0 8.0 0.00 0.00 0.00 65 1009.4
20260905100226 71 9 2.0 8.0 0.00 0.00 0.00 65 1009.3
20260905095726 71 323 3.0 8.0 0.00 0.00 0.00 64 1009.4
20260905095226 72 344 2.0 6.0 0.00 0.00 0.00 64 1009.4
20260905094726 72 5 1.0 7.0 0.00 0.00 0.00 64 1009.3
20260905094226 72 351 2.0 9.0 0.00 0.00 0.00 64 1009.4
20260905093726 72 322 5.0 9.0 0.00 0.00 0.00 64 1009.3
20260905093226 72 5 5.0 9.0 0.00 0.00 0.00 63 1009.2
20260905092726 72 355 2.0 9.0 0.00 0.00 0.00 63 1009.2
20260905091726 72 355 4.0 9.0 0.00 0.00 0.00 63 1009.2
20260905091226 73 20 2.0 7.0 0.00 0.00 0.00 63 1009.0
20260905090726 73 347 3.0 7.0 0.00 0.00 0.00 63 1009.1
20260905090226 73 309 3.0 8.0 0.00 0.00 0.00 62 1009.1
20260905085726 73 304 4.0 8.0 0.00 0.00 0.00 62 1009.1
20260905085226 73 327 4.0 8.0 0.00 0.00 0.00 62 1009.1
20260905084726 73 281 3.0 8.0 0.00 0.00 0.00 62 1009.1
20260905084226 73 5 5.0 9.0 0.00 0.00 0.00 61 1009.1
20260905083726 73 311 4.0 9.0 0.00 0.00 0.00 61 1009.1
20260905083226 73 335 4.0 9.0 0.00 0.00 0.00 61 1009.2
20260905082726 74 339 3.0 8.0 0.00 0.00 0.00 61 1009.1
20260905081726 74 14 5.0 9.0 0.00 0.00 0.00 60 1009.1
20260905081226 74 278 2.0 12.0 0.00 0.00 0.00 60 1009.1
20260905080725 74 311 5.0 12.0 0.00 0.00 0.00 60 1009.2
20260905080225 74 348 4.0 10.0 0.00 0.00 0.00 60 1009.1
20260905075227 74 292 5.0 10.0 0.00 0.00 0.00 59 1009.1
20260905074726 74 348 5.0 8.0 0.00 0.00 0.00 59 1009.2
20260905073226 75 328 3.0 8.0 0.00 0.00 0.00 59 1009.2
20260905072726 75 282 3.0 8.0 0.00 0.00 0.00 59 1009.1
20260905072226 75 313 3.0 8.0 0.00 0.00 0.00 58 1009.2
20260905071726 75 260 3.0 8.0 0.00 0.00 0.00 59 1009.1
20260905071226 75 0 3.0 8.0 0.00 0.00 0.00 59 1009.2
20260905070725 75 306 4.0 8.0 0.00 0.00 0.00 59 1009.1
20260905070225 75 23 3.0 8.0 0.00 0.00 0.00 59 1009.1
20260905065726 75 18 3.0 7.0 0.00 0.00 0.00 59 1009.1
20260905065226 75 27 3.0 7.0 0.00 0.00 0.00 59 1009.2
20260905064726 75 338 3.0 7.0 0.00 0.00 0.00 59 1009.0
20260905064226 75 338 4.0 10.0 0.00 0.01 0.00 59 1009.0
20260905063725 75 318 3.0 10.0 0.00 0.01 0.00 59 1009.2
20260905063225 75 36 2.0 8.0 0.00 0.01 0.00 60 1009.1
20260905062726 75 340 3.0 9.0 0.00 0.05 0.00 60 1009.3
20260905061726 75 277 2.0 5.0 0.00 0.05 0.00 61 1009.4
20260905061226 75 338 1.0 5.0 0.00 0.05 0.00 61 1009.4
20260905060726 76 312 2.0 5.0 0.00 0.05 0.00 61 1009.5
20260905060226 76 344 2.0 5.0 0.00 0.05 0.00 61 1009.4
20260905055726 76 303 3.0 6.0 0.00 0.05 0.00 60 1009.5
20260905055226 76 22 1.0 6.0 0.00 0.05 0.00 60 1009.5
20260905054726 76 0 1.0 3.0 0.00 0.05 0.00 61 1009.6
20260905053726 76 308 2.0 5.0 0.00 0.05 0.00 60 1009.8
20260905053226 76 34 2.0 8.0 0.00 0.05 0.00 60 1009.9
20260905052726 76 331 3.0 8.0 0.00 0.05 0.00 60 1009.8
20260905052226 76 347 3.0 8.0 0.00 0.05 0.00 61 1009.8
20260905051725 76 321 2.0 5.0 0.00 0.05 0.00 61 1009.9
20260905051226 76 344 3.0 7.0 0.00 0.05 0.00 61 1009.9
20260905050225 76 30 3.0 9.0 0.00 0.05 0.00 61 1009.9
20260905045725 76 17 4.0 12.0 0.00 0.05 0.00 61 1009.9
20260905045225 76 9 2.0 12.0 0.00 0.05 0.00 61 1010.0
20260905044725 76 330 3.0 8.0 0.00 0.05 0.00 61 1010.0
20260905044225 76 319 3.0 8.0 0.00 0.05 0.00 61 1010.1
20260905043725 76 15 3.0 7.0 0.00 0.05 0.00 60 1010.2
20260905043225 76 9 3.0 7.0 0.00 0.05 0.00 60 1010.1
20260905042728 77 19 3.0 7.0 0.00 0.05 0.00 60 1010.1
20260905042228 77 347 4.0 7.0 0.00 0.05 0.00 60 1010.2
20260905041228 77 351 1.0 9.0 0.00 0.05 0.00 60 1010.1
20260905040728 77 9 3.0 9.0 0.00 0.05 0.00 60 1010.3
20260905040227 77 297 2.0 8.0 0.00 0.05 0.00 60 1010.2
20260905035728 77 312 4.0 8.0 0.00 0.05 0.05 59 1010.2
20260905035228 77 269 3.0 7.0 0.00 0.05 0.05 59 1010.2
20260905034728 77 9 3.0 7.0 0.00 0.05 0.05 59 1010.2
20260905034228 78 302 3.0 8.0 0.00 0.05 0.05 59 1010.2
20260905033727 78 337 3.0 8.0 0.00 0.05 0.05 59 1010.0
20260905033227 78 339 3.0 8.0 0.00 0.05 0.05 59 1010.0
20260905032727 78 351 2.0 8.0 0.00 0.05 0.05 59 1010.0
20260905032228 78 0 2.0 5.0 0.00 0.05 0.05 59 1009.9
20260905031728 78 336 1.0 7.0 0.00 0.05 0.05 59 1009.9
20260905031228 78 331 3.0 8.0 0.00 0.05 0.05 59 1009.9
20260905030728 78 272 3.0 8.0 0.00 0.05 0.05 59 1010.1
20260905025728 78 330 2.0 8.0 0.00 0.05 0.05 58 1010.0
20260905025228 78 315 2.0 7.0 0.00 0.05 0.05 58 1010.0
20260905024728 78 263 1.0 3.0 0.00 0.05 0.05 58 1010.0
20260905024228 78 340 2.0 3.0 0.00 0.05 0.05 58 1010.0
20260905023728 78 329 1.0 3.0 0.00 0.05 0.05 58 1009.9
20260905023228 78 294 1.0 3.0 0.00 0.05 0.05 58 1010.0
20260905022728 79 291 1.0 6.0 0.00 0.05 0.05 58 1010.0
20260905022229 79 331 2.0 6.0 0.00 0.05 0.05 58 1010.1
20260905020728 79 322 2.0 7.0 0.00 0.05 0.05 57 1010.1
20260905020228 79 320 1.0 3.0 0.00 0.05 0.05 57 1010.1
20260905014728 79 323 3.0 8.0 0.00 0.05 0.05 56 1010.1
20260905014228 80 274 2.0 5.0 0.00 0.05 0.05 56 1010.1
20260905013728 80 286 2.0 6.0 0.00 0.05 0.05 56 1010.1
20260905013228 80 296 1.0 8.0 0.00 0.05 0.05 56 1010.2
20260905012728 80 295 2.0 8.0 0.00 0.05 0.05 56 1010.2
20260905012228 80 300 2.0 7.0 0.00 0.05 0.05 55 1010.2
20260905011728 80 296 1.0 6.0 0.00 0.05 0.05 55 1010.2
20260905011228 80 18 3.0 7.0 0.00 0.05 0.05 55 1010.1
20260905010728 80 319 3.0 7.0 0.00 0.05 0.05 54 1010.1
20260905010229 80 294 2.0 5.0 0.00 0.05 0.05 54 1010.0
20260905005727 81 342 2.0 6.0 0.00 0.05 0.05 54 1009.9